SL-16 DEB, 39845

Orbit data source: Space-Track

SL-16 DEB, 39845 is space debris in LEO originally from a launch on Fri, 25 Dec 1992 UTC launched from the Tyuratam Missile And Space Complex (TTMTR). Debris objects in space refer to the collection of defunct objects orbiting the Earth. Examples of debris include non-operational satellites, rocket bodies, and fragments generated from explosions, collisions, or faulty payload assembly.

Loading next visibility...
Identifier
39845, 1992-093KX
Orbit
LEO
Country
Flag of CISCIS
Related business
Manufacturer
Unknown
Mission
Spacecraft
Bus & Motor
Unknown
Mass
Unknown
Launch date (UTC)
1992-12-25 (33 years ago)
Launch vehicle
Unknown
Launch site
Tyuratam Missile And Space Complex (TTMTR)
Object type
Payload
Rocket body
Debris
Shape & HBR
Unknown shape, 0.1 m
Radar Cross Section
Small (<0.1 m²)

Expand to show TLE details & history
Last TLE update: 5 months ago

TLE from 5 months ago
0 SL-16 DEB
1 39845U 92093KX  26026.60860948  .00002290  00000-0  11884-2 0  9996
2 39845  70.9806   8.2792 0123669 187.3713 172.5595 14.11947005135966
Epoch: 2026-01-26T14:36Z
TLE epoch observation values (Epoch: 2026-01-26T14:36:23.859Z)
Latitude
-0.00003°
Longitude
23.27786°
Altitude
943.814 km
Speed
7.335 km/s
True Right ascension
00h 33m 07s
True Declination
0° 00' 00"
Sunlit
Object was in daylight at epoch
Visualization orbit readout
Latitude
Unknown
Longitude
Unknown
Altitude
Unknown
Speed
Unknown
Apparent Right ascension
Unknown
Apparent Declination
Unknown
Sunlit
N/A
Visualization observer readout
Local Sidereal Time
02:31:28
Azimuth
Unknown
Elevation
Unknown
Doppler factor
Unknown
Orbital elements
Apogee altitude
940.044 km
Perigee altitude
761.248 km
Semi-major axis
7,228.783 km
Eccentricity
0.01237
Inclination
70.9806°
RAAN
8.2792°
Arg. of periapsis
187.3713°
True anomaly
172.74024°
Mean anomaly
172.5595°
Eccentric anomaly
172.65015°
Mean motion
3.53139 °/min
Orbital period
101.94 mins
BSTAR
0.0011884
Loading maneuver chart data...
Computing Atmospheric mass density...
Loading historical data...
Loading historical data...
Loading historical data...
Loading historical data...
Loading historical data...
Loading historical data...
Loading historical data...

Documentation

Showing up to 5 results
|